KB1JDX Weather Reports


Display with metric or nautical units.
time (UTC)temp
F
wind
direction
speed
MPH
gust
MPH
rain 1hr
in
rain 24hr
in
rain mn
in
humidity
%
barometer
mb
20220701083717 60 198 0.0 0.0 0.00 0.00 0.00 78 1018.7
20220701082056 60 198 0.0 0.0 0.00 0.00 0.00 78 1018.8
20220701081718 60 198 0.0 0.0 0.00 0.00 0.00 78 1018.7
20220701075716 60 198 0.0 0.0 0.00 0.00 0.00 78 1018.8
20220701065716 61 198 0.0 0.0 0.00 0.00 0.00 78 1019.0
20220701063716 62 198 0.0 0.0 0.00 0.00 0.00 78 1019.1
20220701055717 63 198 0.0 0.0 0.00 0.00 0.00 78 1019.3
20220701053716 63 198 0.0 0.0 0.00 0.00 0.00 79 1019.3
20220701045717 64 198 0.0 0.0 0.00 0.00 0.00 79 1019.6
20220701043718 64 198 0.0 0.0 0.00 0.00 0.00 79 1019.9
20220701041716 65 198 0.0 0.0 0.00 0.00 0.00 79 1020.0
20220701035716 65 198 0.0 0.0 0.00 0.00 0.00 79 1020.2
20220701033718 66 198 0.0 0.0 0.00 0.00 0.00 79 1020.3
20220701025716 67 198 0.0 0.0 0.00 0.00 0.00 79 1020.2
20220701023717 67 198 0.0 0.0 0.00 0.00 0.00 78 1020.3
20220701021718 68 198 0.0 0.0 0.00 0.00 0.00 77 1020.4
20220701015717 69 198 0.0 0.0 0.00 0.00 0.00 77 1020.4
20220701013716 70 198 0.0 0.0 0.00 0.00 0.00 75 1020.1
20220701011716 71 198 0.0 0.0 0.00 0.00 0.00 74 1019.9
20220701005717 72 198 0.0 0.0 0.00 0.00 0.00 73 1019.9
20220701003716 74 198 0.0 0.0 0.00 0.00 0.00 70 1019.8
20220701001716 75 198 0.0 0.0 0.00 0.00 0.00 68 1019.7
20220630235716 76 198 0.0 0.0 0.00 0.00 0.00 70 1019.6
20220630233716 77 198 0.0 0.0 0.00 0.00 0.00 61 1019.5
20220630231716 78 198 0.0 0.0 0.00 0.00 0.00 57 1019.5
20220630225716 78 198 0.0 0.0 0.00 0.00 0.00 55 1019.4
20220630223717 79 197 0.0 0.0 0.00 0.00 0.00 53 1019.3
20220630221716 79 197 0.0 0.0 0.00 0.00 0.00 53 1019.5
20220630215716 80 197 0.0 0.0 0.00 0.00 0.00 53 1019.2
20220630213717 80 198 0.0 0.0 0.00 0.00 0.00 49 1019.1
20220630211716 80 198 0.0 2.0 0.00 0.00 0.00 47 1019.2
20220630205716 82 194 0.0 9.0 0.00 0.00 0.00 47 1019.4
20220630203716 82 194 0.0 9.0 0.00 0.00 0.00 45 1019.6
20220630201716 82 203 0.0 0.0 0.00 0.00 0.00 45 1019.4
20220630195716 83 109 0.0 0.0 0.00 0.00 0.00 44 1019.6
20220630193716 82 150 0.0 0.0 0.00 0.00 0.00 46 1019.8
20220630191716 81 148 0.0 6.0 0.00 0.00 0.00 48 1020.1
20220630185716 81 53 0.0 7.0 0.00 0.00 0.00 48 1020.1
20220630183716 80 53 0.0 7.0 0.00 0.00 0.00 49 1020.6
20220630181717 79 355 0.0 5.0 0.00 0.00 0.00 50 1020.7
20220630175716 79 69 0.0 2.0 0.00 0.00 0.00 50 1020.7
20220630173716 80 12 0.0 2.0 0.00 0.00 0.00 50 1021.0
20220630165716 80 317 0.0 6.0 0.00 0.00 0.00 48 1021.3
20220630163716 80 15 0.0 6.0 0.00 0.00 0.00 48 1021.4
20220630161716 80 313 0.0 7.0 0.00 0.00 0.00 50 1021.4
20220630155716 79 26 0.0 0.0 0.00 0.00 0.00 51 1021.7
20220630153716 80 248 0.0 0.0 0.00 0.00 0.00 52 1.0
20220630151716 78 290 0.0 1.0 0.00 0.00 0.00 55 1021.7
20220630145716 77 31 0.0 2.0 0.00 0.00 0.00 56 1021.8
20220630143716 77 191 0.0 2.0 0.00 0.00 0.00 57 1021.7
20220630135716 74 32 0.0 0.0 0.00 0.00 0.00 64 1021.9
20220630133716 72 275 0.0 0.0 0.00 0.00 0.00 67 1022.1
20220630131716 70 275 0.0 5.0 0.00 0.00 0.00 70 1022.0
20220630125716 68 274 0.0 0.0 0.00 0.00 0.00 76 1021.9
20220630123716 65 36 0.0 0.0 0.00 0.00 0.00 80 1022.2
20220630121716 63 213 0.0 0.0 0.00 0.00 0.00 77 1022.0
20220630115716 61 213 0.0 0.0 0.00 0.00 0.00 76 1022.2
20220630111716 58 213 0.0 0.0 0.00 0.00 0.00 76 1021.8
20220630105718 57 213 0.0 0.0 0.00 0.00 0.00 77 1021.8
20220630103717 57 213 0.0 0.0 0.00 0.00 0.00 77 1021.6
20220630101716 57 213 0.0 0.0 0.00 0.00 0.00 77 1021.6
20220630095716 57 213 0.0 0.0 0.00 0.00 0.00 77 1021.4
20220630093716 57 213 0.0 0.0 0.00 0.00 0.00 77 1021.3
20220630091716 57 213 0.0 0.0 0.00 0.00 0.00 77 1021.4